Theta_e
313 313 313 313 316 321 322 320 318 320 320 312 313 316 316 320 320 320 320 321 322 321 321 323 326 327 330 329 334 335 334 338 340 334 335 349 349 346 345 340 343 344 343 344 346 348 345 338 336 338 340 341 341 342 342 341 342 342 343 342 342 342 342 342 343 342 342 342 342 343 342 343 342 341 341 340 337 336 337 338 339 337 334 334 335 334 332 327 322 324 327 332 337 336 332 330 329
313 313 314 315 318 320 320 320 317 315 315 310 313 316 317 321 320 320 320 319 320 319 320 321 322 326 329 331 333 332 336 340 344 345 347 348 346 346 343 341 344 343 343 344 346 346 345 340 337 339 339 340 340 340 341 341 342 342 342 343 342 342 342 342 342 342 342 342 342 342 342 342 342 341 341 338 335 336 339 340 340 338 336 335 336 335 334 332 327 323 322 330 337 333 329 329 329
312 313 316 318 319 320 320 321 315 310 311 310 313 319 320 320 320 320 319 319 319 319 320 321 322 327 328 332 333 331 339 343 344 346 348 347 349 346 341 343 343 343 344 344 347 345 345 342 339 339 340 341 338 340 341 342 342 342 343 343 342 342 342 342 342 343 342 342 342 342 342 342 341 341 340 337 336 337 339 339 339 337 336 337 336 335 335 336 334 328 324 330 334 330 328 329 331
312 314 317 320 319 320 321 320 317 311 310 310 312 319 321 320 320 320 320 319 319 320 320 320 323 328 327 329 334 335 341 345 347 347 348 348 348 346 342 344 343 344 343 344 346 344 345 343 340 339 342 341 338 339 341 342 343 343 343 343 343 342 342 342 342 342 342 342 341 341 341 340 340 341 340 339 338 338 339 339 338 334 333 335 337 337 336 337 336 335 331 330 330 328 329 331 331
313 315 316 318 320 320 321 320 319 313 311 313 313 319 321 320 320 320 320 319 319 320 320 320 321 326 328 332 334 336 343 346 349 348 349 348 346 344 342 344 344 344 343 344 345 344 345 342 340 339 342 342 338 339 341 342 343 343 343 342 343 342 342 342 342 342 342 342 341 340 340 340 340 339 340 340 338 337 338 338 335 331 330 332 336 337 337 337 337 337 333 328 327 328 331 331 332
315 317 317 318 319 319 319 316 315 313 316 319 317 319 320 319 320 320 319 319 319 320 320 320 321 321 326 336 340 342 347 349 350 349 349 348 345 344 344 345 344 344 343 344 345 344 346 343 340 339 341 341 338 339 342 342 343 343 342 342 342 342 342 342 342 342 342 341 340 339 339 340 338 337 337 336 336 337 337 337 335 332 332 332 335 337 337 337 338 335 330 326 328 330 331 332 332
316 318 318 318 318 318 318 313 313 314 318 321 320 320 320 320 319 319 319 320 319 321 321 321 323 321 324 332 339 348 349 348 350 348 349 347 345 344 344 344 344 344 343 345 345 344 346 343 340 340 340 340 339 340 342 342 342 342 342 343 342 342 343 342 343 342 342 341 340 339 339 338 337 337 336 335 334 335 335 335 334 334 334 334 335 338 337 338 337 331 327 328 330 331 331 332 333
315 318 318 319 319 319 317 314 316 317 319 320 321 321 320 320 319 319 319 320 319 320 321 320 322 320 325 325 332 348 349 348 350 348 347 345 345 344 344 344 343 343 343 345 344 345 346 342 339 340 340 339 339 340 342 342 342 342 342 342 341 343 342 342 342 342 342 341 341 339 339 338 338 338 337 336 334 333 333 332 332 332 333 334 335 337 337 336 332 328 327 329 330 331 331 332 333
315 317 317 318 318 318 315 315 317 319 321 320 320 320 319 320 319 320 319 320 319 319 320 319 321 319 324 321 329 348 349 348 348 348 347 344 345 344 344 344 343 343 343 344 344 346 345 341 339 339 339 339 338 340 342 341 341 342 343 342 342 342 342 342 342 341 341 341 340 339 340 340 339 338 337 336 334 333 333 332 332 331 331 333 333 333 333 330 327 327 328 329 330 331 331 332 333
316 317 317 318 317 314 312 314 317 319 321 320 320 320 320 320 319 320 319 319 318 318 319 319 320 320 321 319 330 348 348 348 348 348 347 345 345 344 344 343 343 342 342 343 343 345 345 341 339 338 338 339 338 340 341 341 342 342 342 342 342 342 342 342 342 341 340 340 340 340 340 340 339 338 337 337 335 334 334 333 332 330 329 331 331 329 327 325 325 326 326 328 330 330 331 331 332
316 316 316 317 314 311 311 313 316 319 321 319 320 320 319 320 319 320 319 319 318 319 320 321 320 320 322 318 335 347 346 347 348 348 347 345 344 344 344 343 343 342 342 344 343 344 345 342 339 337 338 338 338 339 341 341 342 343 342 342 342 342 342 342 342 341 340 340 340 340 340 339 339 338 337 336 335 333 332 331 329 328 328 330 330 326 323 323 324 324 325 327 329 329 330 331 331
316 316 317 315 313 313 314 314 316 320 320 320 320 320 320 319 319 319 319 319 318 319 319 321 319 319 320 318 340 347 345 347 348 347 346 345 344 344 344 343 342 342 343 343 343 343 343 343 340 339 338 337 338 340 342 341 342 343 342 342 341 342 342 341 341 340 340 339 339 339 339 338 337 337 336 335 335 334 331 328 326 327 328 329 328 325 322 322 323 323 325 327 328 328 329 330 329
315 317 317 314 315 316 316 315 317 320 319 320 319 320 320 319 319 319 319 319 318 319 319 319 318 320 319 324 346 346 345 347 348 346 345 344 343 343 343 343 342 342 343 343 344 343 342 342 342 341 339 337 338 341 342 342 342 342 341 342 341 341 341 341 341 340 340 338 338 338 336 336 335 334 334 332 332 333 331 327 325 326 328 329 329 327 324 323 323 323 325 326 327 327 327 329 329
314 316 317 315 317 317 316 316 316 317 317 320 319 319 320 319 320 319 319 319 318 319 319 320 319 320 321 325 341 344 344 347 346 344 345 343 343 343 342 343 342 342 343 343 344 343 342 341 341 342 340 339 340 341 341 342 342 341 342 342 341 341 341 341 340 339 336 334 333 332 329 327 328 331 332 331 331 330 328 326 325 326 327 329 329 328 326 324 324 325 326 327 326 327 327 327 327
315 316 317 316 316 316 316 316 317 315 316 320 320 319 320 319 320 318 320 318 320 325 322 323 321 321 325 324 332 342 345 345 345 344 344 343 342 341 341 342 341 341 342 343 344 343 342 340 341 342 341 340 340 341 342 342 341 341 341 341 341 340 340 340 339 335 332 329 326 323 319 316 316 320 324 325 325 322 321 324 325 325 327 328 329 329 328 327 326 326 326 327 327 327 327 326 326
315 315 316 315 314 313 315 317 317 315 316 321 319 319 319 319 320 318 319 318 321 329 324 323 325 324 328 330 337 344 345 345 345 344 344 343 341 340 340 341 340 341 342 343 343 342 341 340 341 342 341 341 341 342 342 342 341 341 341 341 340 339 340 338 335 332 329 326 321 317 316 319 319 316 319 320 316 314 319 326 325 324 327 327 329 328 328 328 327 326 326 326 326 325 325 324 323
314 315 315 313 313 313 315 318 317 315 318 320 319 319 318 318 320 317 319 317 318 327 326 328 333 333 334 339 345 345 345 344 344 344 344 342 341 340 340 340 340 341 342 342 342 341 341 341 341 341 341 340 341 342 343 343 341 340 340 340 339 339 338 335 333 332 330 326 320 319 325 332 332 328 329 326 319 316 316 322 324 324 327 327 328 327 326 326 324 324 323 323 324 324 323 324 325
313 315 314 312 313 314 316 319 317 318 318 319 318 318 318 318 319 318 319 317 319 327 330 333 337 339 341 343 346 344 345 344 343 344 344 343 342 341 341 341 340 341 341 342 341 340 341 341 341 341 341 340 341 342 343 344 341 341 341 340 339 338 337 335 335 335 334 332 326 327 334 336 335 335 335 332 331 326 314 315 322 324 326 326 326 326 324 323 322 322 322 324 325 324 325 330 332
313 314 313 313 315 316 317 318 318 319 318 319 319 318 318 318 319 318 319 320 322 326 328 333 334 339 344 344 345 345 344 344 344 344 344 344 343 342 342 342 341 341 341 341 340 340 341 341 341 341 341 340 341 342 343 344 342 342 342 341 340 339 339 338 338 337 336 336 333 334 336 335 336 336 333 331 331 326 312 310 320 324 325 325 325 324 323 323 322 324 326 327 327 326 329 333 333
313 313 314 314 316 317 317 318 318 318 318 319 318 318 318 317 319 319 319 319 321 324 326 331 330 335 343 343 345 345 344 344 343 344 345 345 344 343 343 343 342 341 341 341 340 340 340 340 341 341 341 341 341 342 343 344 343 343 342 342 341 340 340 339 338 337 336 336 336 335 336 336 337 336 332 329 329 326 315 310 316 323 325 324 324 324 325 325 326 328 328 327 329 331 333 333 331
313 313 314 315 316 316 317 317 317 318 317 318 318 318 317 318 318 318 318 317 318 322 323 327 325 328 342 343 344 345 344 344 344 345 345 346 345 344 344 343 342 342 341 341 340 339 340 340 341 341 341 341 341 341 342 343 344 343 343 342 341 341 340 339 338 337 337 336 336 336 336 336 337 337 336 336 335 334 328 321 322 326 328 326 325 329 332 331 332 333 332 331 334 335 335 335 335
313 313 314 315 316 316 316 316 316 317 317 317 318 317 317 317 318 317 317 317 318 320 321 324 321 325 340 342 342 344 344 344 344 345 345 346 346 344 344 343 342 342 342 341 340 339 340 340 340 341 340 341 341 341 342 343 344 343 343 342 341 340 339 337 337 337 337 337 337 336 337 337 337 337 338 339 338 337 335 332 330 330 332 330 330 335 336 336 337 337 337 337 338 338 338 339 339
313 313 314 314 315 315 316 315 315 316 316 316 316 317 318 316 317 317 317 318 318 320 323 323 323 332 341 341 342 343 342 342 344 345 345 346 346 344 343 342 342 342 341 341 340 340 340 340 340 340 340 341 341 340 341 343 343 342 342 342 341 340 338 337 337 337 337 337 337 337 338 338 338 338 338 339 339 339 337 335 334 334 335 335 337 339 339 340 340 339 340 340 340 339 339 339 338
312 313 314 314 314 314 315 315 315 315 315 316 316 317 316 315 317 316 316 317 317 325 329 327 331 339 341 340 341 342 343 343 344 345 345 346 345 344 343 343 342 342 341 340 339 340 340 340 340 340 339 340 341 341 341 342 342 342 342 341 340 339 338 337 337 338 338 338 338 338 339 339 338 338 339 339 340 340 339 339 338 338 339 340 341 341 341 341 341 341 341 340 339 338 337 338 336
312 312 313 314 314 313 314 314 314 314 315 315 316 316 315 316 316 316 317 315 318 327 331 332 336 340 340 340 342 343 344 344 345 345 345 345 345 344 343 343 342 341 341 341 340 340 340 340 340 339 338 339 340 341 341 342 342 342 342 341 340 339 337 337 338 339 338 338 338 338 339 339 339 339 339 339 340 340 341 341 340 340 341 341 341 342 342 341 341 341 340 338 337 336 336 337 336
312 312 312 314 313 313 313 313 313 314 314 315 314 315 315 316 316 317 317 316 324 329 329 334 338 340 340 340 344 344 344 344 345 345 345 345 344 344 344 343 342 341 341 341 340 340 340 339 340 339 338 338 340 341 340 341 342 342 341 341 340 339 337 338 338 339 338 338 338 338 339 339 339 339 339 339 340 340 341 341 341 342 342 342 342 342 342 342 341 339 338 337 336 336 336 337 336
312 312 312 313 313 313 313 313 314 314 314 314 314 314 314 315 315 316 316 320 327 326 327 334 338 340 341 342 344 344 344 344 345 346 345 345 344 344 344 343 341 340 340 341 340 340 339 339 339 339 338 338 339 340 340 341 342 341 341 340 340 339 338 338 338 338 338 338 338 338 338 339 339 339 339 340 340 340 340 341 341 342 342 342 342 343 342 341 340 338 338 338 338 337 336 336 335
311 311 312 313 313 313 313 313 314 313 314 314 314 314 315 315 314 314 317 323 325 321 326 334 336 340 342 344 345 343 343 344 344 345 346 345 344 344 343 342 341 340 340 340 340 339 338 338 338 338 338 339 340 340 340 341 341 341 341 340 340 339 338 338 338 339 339 339 338 337 337 338 338 339 339 340 340 339 339 340 341 342 343 343 342 342 341 340 339 339 339 340 339 338 336 335 333
311 311 311 312 312 313 313 313 313 313 314 314 314 313 313 314 314 314 316 321 323 321 325 332 336 340 342 344 343 342 343 344 344 345 345 344 343 343 343 342 341 340 340 340 340 339 338 338 337 338 338 339 340 340 340 341 340 340 340 340 340 339 338 337 338 339 339 339 338 336 337 338 338 339 339 340 340 339 340 340 341 342 343 343 343 342 340 339 339 340 340 339 338 336 334 334 333
310 311 311 311 311 311 313 313 313 313 314 314 313 310 311 314 315 314 315 320 324 322 323 330 338 342 342 344 343 342 343 343 344 344 344 344 343 343 342 341 340 340 340 339 339 339 337 337 337 337 338 339 340 340 340 340 340 340 340 340 340 339 338 338 338 339 339 338 337 336 337 338 338 339 339 340 340 340 340 341 342 342 343 343 342 341 339 340 340 339 338 337 336 334 333 333 332
310 310 311 311 310 310 312 313 313 313 313 314 313 309 311 314 315 315 315 319 323 323 322 326 337 343 343 345 344 343 343 343 344 344 343 344 343 342 342 340 340 340 340 340 338 338 337 337 337 337 338 339 340 340 340 340 339 340 339 339 339 338 338 338 339 339 339 338 337 337 338 338 339 340 340 341 340 341 342 342 343 342 342 342 341 340 340 340 340 338 337 337 336 334 333 332 332
310 310 309 310 310 311 312 312 313 314 313 314 313 309 311 314 315 316 316 321 325 324 321 324 336 345 344 345 345 344 343 343 344 344 343 344 343 342 342 340 340 340 341 340 337 337 337 337 337 337 338 339 339 339 339 339 340 339 339 339 339 338 338 339 339 339 339 338 338 338 337 337 339 340 340 340 341 342 342 342 342 342 341 342 341 341 341 339 338 337 336 337 336 334 333 333 332
310 309 309 309 309 310 312 312 312 314 314 314 313 311 312 314 315 317 321 327 328 324 322 326 337 345 346 346 347 345 343 343 344 345 344 343 343 342 341 340 340 341 341 340 338 337 337 337 337 337 337 339 339 339 339 338 339 339 339 340 339 338 338 339 339 339 338 338 338 337 337 338 339 340 340 341 342 342 342 342 342 341 341 342 341 340 340 338 337 337 335 335 336 334 332 332 331
311 310 310 310 310 310 311 312 312 313 314 314 314 312 313 315 315 318 325 329 329 325 323 328 336 343 345 346 347 346 344 342 343 344 345 343 343 342 341 341 341 341 341 340 339 337 337 337 337 337 337 338 338 338 338 338 339 339 339 339 339 338 338 339 339 339 339 339 338 337 338 339 340 341 341 342 342 341 341 341 340 340 341 341 340 339 337 336 336 336 334 333 334 333 331 331 329
311 310 310 310 309 309 310 312 312 312 313 313 314 313 313 315 315 319 325 328 328 325 323 330 334 337 345 348 348 346 344 343 343 344 344 343 343 342 341 341 341 341 341 340 339 338 337 336 336 336 337 338 338 338 338 339 339 339 340 339 339 338 338 339 339 339 339 339 338 338 338 338 340 341 342 342 342 341 341 340 340 340 340 339 338 337 336 336 336 335 334 333 334 332 329 329 327
311 311 310 309 309 309 311 313 313 312 312 312 314 313 313 314 315 319 325 327 328 325 325 332 335 335 344 350 348 346 345 343 343 344 344 343 342 342 341 342 341 341 340 340 339 338 338 337 336 336 336 337 338 338 338 338 339 339 339 338 338 338 338 339 339 338 339 339 338 338 338 338 339 341 341 342 341 340 340 339 339 338 338 338 337 336 335 335 335 334 333 332 333 332 327 325 325
312 312 310 310 310 309 311 313 313 312 312 311 313 314 314 314 316 319 323 326 328 327 327 334 339 339 343 348 347 346 345 343 343 344 343 342 342 342 342 342 342 341 340 339 339 339 339 338 337 336 336 337 337 337 337 338 338 338 338 338 338 338 338 338 339 339 338 338 338 338 338 338 339 340 341 341 340 339 338 338 337 337 337 336 335 335 334 334 333 333 332 331 330 330 326 323 324
312 312 310 310 310 310 311 312 313 313 312 311 312 313 314 314 315 319 324 326 329 329 328 335 342 342 342 344 345 346 344 343 343 343 343 342 341 342 342 342 342 341 340 340 339 339 339 338 337 337 336 336 336 337 337 337 338 337 338 338 338 338 338 338 339 339 338 337 338 338 339 339 339 340 340 339 338 337 337 336 336 336 335 334 334 333 332 332 331 331 331 331 329 327 325 323 321
312 312 310 309 309 310 311 311 313 313 311 312 313 312 313 315 315 318 324 327 330 331 332 336 340 341 341 342 344 346 344 342 343 342 342 342 341 342 342 342 342 341 341 340 340 339 339 338 337 337 337 336 336 336 336 337 338 337 338 338 337 338 338 338 338 338 338 337 338 338 338 338 338 339 338 338 337 336 336 335 335 335 334 333 333 332 331 330 329 329 329 330 330 326 324 322 320
311 311 309 308 309 309 309 310 312 313 312 312 314 312 312 315 315 316 322 327 329 333 336 339 339 339 341 342 344 345 343 342 342 342 342 342 342 341 341 341 341 341 341 340 340 340 339 338 337 337 337 337 337 336 336 338 337 335 337 338 337 338 338 337 337 337 337 337 337 336 335 335 336 336 336 336 335 334 334 334 333 333 332 331 331 330 329 327 326 326 326 326 328 327 324 321 320
310 310 310 309 310 309 309 311 311 312 312 313 313 312 312 314 314 314 320 327 329 332 336 339 339 339 341 342 343 343 342 341 341 342 342 342 342 342 341 341 340 340 340 340 340 340 340 339 338 337 337 338 337 336 336 336 334 333 335 337 337 337 336 336 336 336 335 335 334 333 331 331 332 333 333 333 333 333 332 332 331 330 330 330 329 328 326 324 323 323 324 324 325 327 325 322 320
310 311 311 310 310 310 311 312 310 309 310 312 313 311 310 313 314 316 322 326 327 331 335 336 338 340 341 342 342 341 341 341 340 341 341 342 342 342 342 341 340 340 340 340 340 340 340 339 338 337 337 338 337 336 334 330 331 333 335 336 336 336 336 335 336 336 335 333 331 330 329 329 330 331 331 331 331 330 329 329 329 329 329 328 327 325 323 321 321 321 321 321 322 324 324 322 321
310 311 311 311 311 310 310 310 309 308 309 311 312 310 309 311 314 319 324 324 326 331 335 335 336 338 340 341 341 341 341 341 340 340 340 341 342 341 341 341 340 340 340 340 340 340 339 338 339 337 335 336 335 335 331 325 329 334 335 336 337 336 336 336 336 336 333 331 330 328 328 329 329 330 329 329 328 328 328 328 328 327 326 325 323 322 320 319 319 318 318 319 319 320 320 320 321
311 311 310 311 311 310 311 310 309 309 310 311 311 310 309 309 314 320 321 322 325 329 333 335 336 338 339 340 340 341 341 340 340 340 340 341 342 341 341 340 340 341 340 340 340 339 337 336 336 335 334 334 333 331 329 326 330 335 335 337 337 336 337 336 334 333 330 330 330 328 328 329 329 329 327 327 326 326 326 326 325 325 323 322 320 319 319 318 317 316 316 316 316 317 318 316 316
311 311 310 310 310 310 311 309 309 309 310 309 309 310 309 308 315 321 321 323 323 323 330 335 335 338 339 339 341 341 341 340 339 340 340 341 341 341 340 340 340 340 340 340 339 336 334 334 334 334 333 334 333 330 330 330 332 334 335 337 337 336 336 333 331 329 328 328 328 327 328 330 329 327 325 324 324 324 324 324 323 322 320 319 318 317 316 314 314 315 315 314 313 313 314 313 312
310 311 310 310 310 311 311 310 309 309 310 310 309 309 308 308 313 319 320 322 321 321 328 333 334 335 338 340 341 341 340 339 338 338 339 341 341 341 340 340 340 340 340 339 336 334 333 334 333 334 333 334 334 333 332 334 334 335 336 337 337 335 332 331 329 327 326 326 326 326 328 328 326 325 324 322 322 322 322 322 321 319 317 316 316 315 313 311 311 312 311 311 311 311 310 311 312
310 310 310 310 310 310 311 311 309 309 311 311 310 309 308 308 312 318 322 322 321 321 326 330 331 333 336 340 341 340 339 338 338 337 339 340 341 340 340 340 340 340 340 338 334 333 334 334 334 333 333 334 335 334 334 336 336 336 337 336 336 334 331 331 328 325 324 324 325 325 326 325 324 323 321 320 320 320 320 320 318 316 315 315 315 314 313 312 311 310 308 307 309 310 309 310 310
310 310 310 310 311 310 310 310 310 312 312 310 309 309 309 307 310 317 324 324 321 322 325 327 330 331 335 339 341 340 339 338 338 337 338 340 340 340 340 340 340 340 340 336 333 333 334 335 334 333 334 335 335 335 336 337 337 336 336 336 334 333 331 331 330 327 325 324 325 325 324 323 321 320 319 319 319 318 318 317 316 315 315 314 314 313 312 311 310 309 308 308 308 310 310 310 311
309 310 310 311 311 312 312 312 312 312 311 310 309 310 309 308 311 318 325 325 321 323 324 324 327 331 334 338 340 341 340 338 338 337 338 338 339 340 341 340 340 340 339 335 332 334 335 334 333 332 333 335 335 336 337 337 337 336 336 335 333 332 331 330 329 327 326 325 326 325 323 321 319 319 319 319 318 317 317 317 316 315 314 312 312 312 310 309 308 307 307 308 308 308 309 309 310
309 310 311 311 312 314 314 313 312 312 311 310 310 311 311 309 311 317 324 324 321 322 323 323 327 331 334 337 339 340 340 339 338 338 338 338 339 340 340 340 340 340 339 335 333 335 335 333 333 332 333 334 334 335 336 337 337 337 335 334 333 332 330 328 327 326 326 326 325 324 322 321 320 319 319 319 318 317 317 316 315 314 312 311 310 309 308 307 307 307 307 308 308 307 307 308 308
308 310 311 311 311 313 314 312 311 311 311 310 311 313 311 310 313 316 320 322 320 320 320 322 325 328 332 336 338 340 340 338 338 338 338 338 339 340 340 340 340 339 339 336 334 335 334 332 332 332 332 334 334 334 336 336 336 336 334 333 332 330 328 327 326 326 326 325 324 324 322 321 319 317 317 317 317 317 316 315 314 312 311 310 310 308 306 306 307 307 307 308 307 307 307 307 308
308 310 311 312 312 312 312 312 312 311 311 312 312 313 312 313 318 319 318 320 320 320 320 322 327 329 334 339 339 339 339 338 338 339 338 338 340 341 340 339 339 339 338 337 336 336 334 331 332 332 332 333 334 334 336 336 335 335 333 332 330 328 326 326 325 325 325 325 324 324 322 320 318 316 315 315 316 315 315 314 313 311 310 310 309 308 307 307 307 307 307 307 307 307 307 306 307
309 309 310 312 313 312 312 313 313 311 312 314 313 313 314 315 319 321 320 319 322 327 327 328 332 336 338 340 340 339 339 339 339 339 339 338 339 340 339 339 339 339 338 337 336 336 334 332 333 334 334 334 334 334 335 335 334 333 331 330 329 327 326 325 325 325 324 324 324 323 321 318 316 314 314 314 315 314 314 313 312 311 310 309 308 307 307 307 307 307 307 307 307 307 307 306 306
309 309 310 312 313 312 312 312 313 313 313 315 313 313 313 312 315 321 321 319 324 332 332 332 334 336 337 339 339 340 339 339 339 339 338 338 339 341 339 339 339 339 338 337 336 336 334 333 334 335 335 334 333 334 335 334 334 332 329 328 327 326 325 324 324 324 324 323 323 321 318 316 314 313 313 313 314 313 313 312 311 310 309 308 308 307 307 307 307 307 307 306 306 306 307 306 306
310 310 310 312 312 312 312 312 314 313 313 314 314 313 311 310 314 319 320 319 323 327 328 330 333 335 336 336 339 339 340 340 339 339 338 338 339 340 339 339 339 338 338 337 336 336 335 335 335 335 334 333 333 335 335 334 332 331 329 328 327 325 325 325 324 323 324 323 321 319 316 314 313 313 313 314 313 313 312 311 310 310 309 308 307 307 307 307 307 306 306 306 306 306 306 306 306
309 310 310 311 312 312 312 312 312 311 312 313 314 313 310 311 316 319 319 319 322 324 325 328 332 334 334 336 339 340 340 340 339 338 338 337 338 340 339 339 339 338 337 337 336 335 335 335 335 335 335 334 334 334 335 333 332 330 329 327 326 324 324 325 324 324 325 323 319 317 315 313 313 314 314 313 313 312 312 311 310 310 309 307 306 307 306 306 306 306 306 306 306 305 305 305 305
309 310 310 310 312 312 312 312 311 310 310 311 314 314 311 312 318 320 320 320 321 324 327 328 330 332 334 338 341 341 341 340 339 338 338 337 338 340 339 339 339 338 337 336 336 336 335 335 335 335 335 334 334 333 333 332 330 329 328 327 325 323 323 324 324 324 324 321 317 315 314 314 314 314 314 313 312 312 311 310 310 309 308 307 306 307 306 306 306 306 306 306 305 304 304 304 304
309 310 310 310 312 312 313 313 311 309 310 310 313 313 311 314 318 318 319 321 321 323 327 329 330 332 335 339 341 341 341 340 339 338 337 337 339 340 339 338 338 338 337 336 336 335 335 335 335 334 335 335 334 333 333 331 329 328 327 326 324 323 324 324 323 324 322 318 315 314 314 314 314 313 313 312 312 311 311 310 309 308 307 306 306 306 306 306 306 306 305 305 304 304 303 303 303
Wind_Speed
10 10 10 11 8 4 4 4 4 1 3 7 5 3 4 5 3 1 5 5 2 7 7 4 4 3 4 4 2 3 2 3 5 3 2 4 3 8 12 12 18 22 21 20 19 20 21 23 21 19 17 15 16 16 18 18 17 17 17 17 17 18 18 19 19 18 18 18 18 17 17 16 16 15 14 13 12 12 12 11 10 10 10 11 10 9 9 9 11 12 12 12 11 11 11 11 11
9 9 9 9 6 6 2 2 6 3 6 8 6 4 4 6 3 3 7 7 6 8 6 4 2 2 4 2 2 4 2 3 5 3 4 5 7 9 10 14 20 21 20 20 20 20 21 21 21 19 17 16 16 16 18 18 17 17 16 17 17 18 18 19 19 18 18 18 18 17 17 16 15 14 13 12 12 12 12 11 10 10 11 11 10 10 10 11 12 12 12 12 11 10 11 10 10
8 9 8 8 6 5 3 3 6 6 7 8 7 4 3 4 4 5 6 7 7 7 6 5 1 2 5 3 1 3 2 4 4 3 5 6 6 9 12 17 20 20 20 19 20 21 20 21 21 20 18 17 17 17 18 18 17 17 17 17 17 18 18 18 18 18 18 18 18 17 16 15 14 13 13 13 12 12 12 11 10 10 11 11 10 11 12 12 13 12 12 12 11 11 10 10 10
7 7 7 7 4 3 4 5 6 7 7 8 7 5 3 3 5 5 5 6 6 5 6 7 1 2 6 4 3 2 3 5 4 4 3 4 4 11 16 19 20 18 18 18 20 20 20 22 23 21 18 18 18 17 18 18 17 17 17 17 17 18 18 19 18 18 18 18 17 17 15 14 14 13 13 12 11 12 12 11 10 9 9 11 11 12 13 13 14 13 12 12 11 11 10 10 11
6 6 5 6 4 3 3 4 5 7 7 7 6 4 4 1 4 4 4 3 5 6 6 6 4 3 3 4 5 2 3 3 4 4 3 5 7 15 18 20 19 18 18 18 19 19 20 23 23 21 20 18 18 18 18 18 17 16 17 17 17 17 18 19 18 18 17 17 17 16 15 14 13 13 13 12 11 11 11 11 9 8 9 10 12 13 13 14 14 13 12 12 12 10 10 10 11
5 5 4 5 3 2 4 6 6 8 9 8 6 3 3 0 3 4 3 2 2 4 5 5 6 7 3 3 3 4 5 1 3 3 3 7 12 16 18 20 18 18 18 18 19 18 19 22 23 21 20 19 18 19 19 18 17 17 17 17 17 18 18 18 18 17 16 16 16 16 15 14 12 11 11 11 11 11 10 9 8 8 9 10 12 12 12 13 12 13 13 13 12 11 10 10 10
5 5 4 6 3 2 7 9 8 9 9 9 8 2 1 1 2 2 3 1 1 2 3 4 7 9 4 3 1 5 6 2 2 3 5 10 15 16 18 19 18 19 18 18 17 18 19 22 23 21 21 19 19 19 19 18 18 17 17 17 18 18 18 18 17 16 16 15 15 16 15 13 12 10 10 10 11 10 9 8 8 9 10 10 11 11 11 11 12 13 14 13 11 10 10 10 10
5 5 2 5 5 5 8 10 10 9 7 6 7 5 2 1 0 2 3 2 3 2 2 4 5 8 2 3 3 6 7 4 3 4 9 13 16 17 18 18 19 19 18 18 16 18 21 22 23 22 22 20 19 20 19 19 18 18 18 17 18 18 17 17 16 16 16 15 15 14 13 12 11 10 9 9 9 8 7 7 8 10 10 10 10 11 11 11 12 13 13 12 11 10 9 9 10
7 6 2 6 8 7 9 10 10 11 9 6 8 8 4 3 3 4 3 2 3 3 4 4 5 7 4 6 3 8 6 6 6 7 10 14 17 16 16 17 18 19 18 18 17 19 19 22 24 23 22 21 20 20 19 19 19 18 18 18 18 18 17 16 16 16 15 14 15 13 12 11 10 10 9 8 8 8 7 7 9 9 9 9 10 10 11 11 12 12 11 10 10 9 8 8 9
7 7 5 6 9 10 10 10 9 11 12 10 11 9 6 5 4 5 5 3 2 3 3 3 5 7 6 8 2 6 5 6 8 9 11 14 16 15 15 16 17 18 19 17 18 19 18 23 24 22 23 22 21 20 20 19 19 19 18 18 18 18 17 16 16 15 14 14 14 13 11 10 9 8 8 8 8 9 9 8 9 9 9 9 9 9 10 11 11 10 10 9 8 8 7 7 8
6 6 6 7 9 11 11 10 11 11 11 12 12 9 6 5 5 5 5 5 4 5 3 2 5 5 7 8 1 5 5 6 7 9 11 14 15 14 15 15 16 17 18 18 19 19 19 22 23 22 22 22 21 21 20 20 20 19 19 18 18 18 17 16 16 15 14 14 13 11 10 8 8 7 7 7 7 8 9 9 10 9 10 9 9 9 10 10 10 9 8 8 7 6 6 5 6
8 7 6 9 11 11 12 12 12 12 11 13 13 10 7 7 7 6 7 6 5 7 6 5 3 4 7 7 1 6 7 6 7 9 12 13 13 14 14 15 16 16 17 18 19 19 20 21 21 21 21 22 22 21 20 20 20 19 19 19 18 18 16 16 15 14 14 13 12 10 10 8 7 6 6 7 7 7 8 10 11 10 10 10 9 9 9 9 9 8 7 7 6 5 5 4 3
8 9 8 10 11 12 14 13 13 13 11 11 11 10 7 7 8 8 9 8 7 9 4 4 3 4 8 6 3 5 7 8 8 10 12 13 13 14 14 14 15 16 17 18 19 19 20 21 21 19 20 21 21 21 20 20 19 19 19 18 18 17 16 15 14 14 13 12 11 9 9 8 7 6 6 7 7 7 8 10 11 11 11 10 10 9 9 9 9 8 7 6 5 4 3 3 1
9 9 9 10 11 13 15 13 13 13 11 9 9 10 8 7 8 9 9 11 10 6 2 2 4 5 6 5 3 4 8 12 11 12 13 13 13 14 13 13 15 15 17 17 17 18 20 21 20 20 20 19 19 19 19 19 19 19 18 18 17 16 16 15 14 13 12 10 9 8 7 7 7 6 5 6 6 6 8 11 12 11 11 10 10 10 10 9 9 8 7 6 5 4 3 2 1
9 8 8 10 12 14 15 14 15 14 11 11 10 10 9 8 8 9 9 12 7 3 4 1 4 4 3 5 3 3 12 15 14 14 14 14 14 14 13 13 14 15 16 16 16 18 19 20 20 20 19 18 19 18 17 19 19 18 18 17 16 15 15 14 13 11 10 9 8 7 7 6 6 5 5 5 6 7 8 10 12 12 11 11 10 10 10 9 9 8 7 6 5 4 3 2 1
8 8 7 11 14 15 14 14 16 15 11 10 9 10 10 9 9 9 6 8 5 4 3 4 5 5 5 5 6 8 17 17 16 15 15 16 15 15 14 13 14 16 16 16 16 17 19 19 19 19 19 19 19 18 17 18 19 18 17 16 15 15 14 13 11 10 9 8 8 8 7 6 5 5 4 5 6 7 8 10 11 12 11 11 10 10 10 9 8 7 6 5 4 3 2 1 1
7 8 9 12 15 16 15 14 15 13 11 10 9 11 11 9 10 7 2 6 9 4 5 4 3 5 5 4 3 12 19 18 18 17 17 18 17 15 14 14 15 16 15 16 17 17 18 18 19 19 18 19 19 18 18 18 18 17 17 16 15 15 13 11 10 9 8 8 8 9 8 7 6 6 6 5 5 7 9 11 12 12 12 11 10 9 9 7 6 5 5 4 4 3 1 1 3
8 8 12 14 14 16 15 16 14 13 14 12 10 12 12 11 10 7 5 9 11 6 7 5 4 4 2 2 5 13 19 19 19 20 20 20 18 16 15 16 16 16 16 16 17 18 18 18 18 18 18 19 19 18 19 18 18 17 16 16 15 14 12 10 9 8 8 8 9 9 7 6 6 6 6 6 6 6 9 12 13 13 12 11 10 9 7 5 4 4 4 3 3 2 1 1 3
10 9 12 14 15 16 16 18 17 14 15 13 12 12 12 13 11 8 9 11 10 10 9 8 8 7 3 4 9 14 17 18 20 21 21 21 19 17 16 15 16 16 17 17 17 19 18 18 18 18 18 20 19 17 18 18 17 18 17 17 15 13 11 9 8 8 8 8 8 8 7 7 7 7 7 8 8 7 9 12 13 13 12 10 9 7 5 4 4 3 2 2 1 0 0 2 3
12 11 12 14 17 17 18 19 18 16 15 15 15 13 13 13 12 10 11 14 13 12 10 9 10 10 8 9 11 13 15 17 20 21 21 21 19 16 15 15 16 16 17 16 18 19 18 18 18 18 18 20 19 18 17 17 18 18 18 17 16 14 12 9 8 8 8 8 8 8 7 7 7 7 8 8 8 8 8 11 12 12 10 9 8 6 4 3 2 1 1 0 0 1 1 2 2
10 13 14 14 15 18 18 18 17 16 14 15 15 15 14 13 12 12 13 15 13 13 14 12 10 8 11 12 12 13 14 16 20 21 21 22 19 16 14 14 14 14 15 15 17 19 18 18 19 18 18 19 19 18 17 17 18 17 17 16 15 15 12 10 9 8 8 8 8 8 7 7 7 7 7 6 7 7 8 9 10 10 9 8 7 5 4 3 1 2 2 1 2 2 2 2 3
10 15 17 15 13 14 15 15 16 14 13 15 17 17 13 11 13 14 16 15 12 9 10 11 10 6 12 14 13 14 14 16 19 21 21 21 21 18 15 14 14 14 15 15 16 18 18 18 19 19 19 19 19 17 16 17 18 17 16 15 15 14 12 10 10 9 8 8 7 7 8 8 8 7 7 6 6 7 8 8 9 9 8 7 6 4 4 2 1 2 2 2 2 2 2 2 2
12 13 16 17 13 11 11 13 15 14 14 16 17 16 13 13 14 15 17 17 12 4 1 4 6 4 12 14 14 14 14 15 17 19 20 21 21 19 18 17 16 15 14 15 16 18 19 19 19 19 19 20 19 17 16 17 18 16 15 15 14 13 12 11 11 10 9 8 8 7 8 7 7 7 7 6 6 6 7 8 8 9 8 7 6 4 3 2 1 1 2 2 2 3 3 3 3
15 13 15 16 13 12 10 10 13 14 16 16 15 15 14 16 15 13 16 17 13 2 3 2 2 6 11 13 14 14 14 16 17 18 19 19 20 19 18 17 16 15 14 15 16 17 19 19 19 19 19 20 19 17 17 17 16 15 15 14 13 13 12 12 11 10 10 8 8 8 7 7 7 7 7 6 6 6 7 7 7 8 7 6 5 3 2 1 1 1 2 2 3 3 3 4 4
18 15 13 13 12 13 11 10 12 14 14 13 13 15 16 17 14 12 15 16 12 5 4 5 5 8 11 12 14 13 13 15 16 17 18 18 18 17 17 16 15 15 14 15 16 17 18 19 19 19 19 19 18 17 17 16 16 16 15 14 14 14 13 12 11 11 10 9 8 8 7 7 6 6 7 6 6 6 7 7 7 6 6 5 4 3 2 1 0 1 2 3 3 4 4 4 5
16 18 14 10 12 14 12 12 13 14 12 10 14 17 17 14 10 11 15 13 9 7 7 7 8 10 11 11 12 12 12 14 16 17 18 18 17 17 17 16 16 15 15 15 15 16 18 19 19 19 19 19 18 18 17 16 16 16 15 14 14 14 12 12 12 11 11 10 9 8 7 6 6 6 6 6 5 6 6 6 5 5 5 5 4 3 2 1 1 2 3 4 4 5 5 5 6
8 17 16 11 12 13 14 14 14 14 13 13 16 18 16 12 9 12 14 11 9 9 10 9 9 11 11 10 11 11 11 13 16 17 17 17 17 18 19 17 16 16 16 15 15 16 18 19 19 19 19 19 19 18 17 16 16 16 15 15 14 14 13 12 12 11 10 10 9 8 7 6 5 5 6 5 5 5 5 4 4 4 4 4 3 2 2 2 2 3 4 5 6 6 6 6 7
6 14 16 14 13 13 16 16 15 13 12 13 15 16 16 15 14 13 11 11 12 12 11 11 10 10 10 10 10 9 9 13 17 17 17 18 17 19 20 18 17 17 16 15 14 15 18 19 19 20 19 18 19 18 17 16 16 15 15 15 14 15 14 12 12 11 10 9 9 9 7 6 5 5 5 5 5 5 4 4 4 3 3 3 3 2 2 2 3 3 4 4 5 6 7 7 8
7 12 14 15 15 14 17 17 16 14 11 12 12 13 17 18 16 15 13 12 13 14 12 11 10 9 9 10 9 9 10 13 17 18 18 19 18 18 20 19 18 16 14 14 14 15 18 19 19 20 20 19 19 18 17 16 15 15 15 14 14 15 14 12 12 11 9 9 9 9 8 6 6 5 5 5 4 4 4 4 3 4 3 3 2 2 2 3 3 3 3 4 5 6 7 8 8
9 11 11 12 13 14 17 15 16 18 13 13 12 11 16 19 18 17 16 14 14 14 14 11 10 9 9 9 9 9 10 13 15 17 18 19 18 18 19 18 17 15 12 13 14 16 18 19 20 20 20 19 18 18 17 16 15 14 14 14 14 13 12 12 11 11 10 9 9 9 8 7 6 6 5 5 4 4 4 3 3 3 3 3 2 2 3 3 3 3 4 4 5 6 7 8 8
11 11 10 10 10 12 18 18 17 18 14 15 15 12 13 16 19 20 17 17 16 15 15 13 11 9 9 9 10 10 10 12 15 17 18 19 18 17 18 17 16 14 12 14 16 17 18 19 19 20 20 20 18 17 16 16 15 15 14 13 14 13 12 12 11 11 10 9 9 9 8 7 6 5 5 5 4 4 4 4 3 3 3 3 2 2 3 3 4 4 5 6 5 6 7 8 8
11 11 11 12 10 10 17 21 19 18 14 18 18 12 11 15 16 18 17 16 16 16 16 15 12 11 10 9 10 9 10 12 14 16 17 18 18 17 18 16 15 15 13 15 17 18 19 19 19 20 21 21 19 16 16 15 15 14 14 14 14 14 12 12 11 11 10 9 9 8 8 7 6 6 5 5 4 3 3 4 3 3 3 2 2 3 3 3 4 5 6 6 6 6 6 7 7
12 12 12 13 13 9 12 19 22 20 15 18 21 12 8 13 13 16 17 16 17 16 16 16 14 12 11 9 9 9 9 11 12 15 16 17 17 17 18 16 15 17 16 16 18 19 20 20 19 19 21 21 19 17 16 16 15 14 15 15 15 14 13 12 11 10 9 9 9 8 8 8 7 6 5 4 4 3 3 3 3 3 3 2 3 3 3 4 5 5 5 6 6 6 6 7 7
11 12 12 13 17 13 10 15 20 23 18 17 20 15 10 10 11 16 17 17 17 17 16 16 14 12 11 10 9 10 10 11 11 14 17 16 16 16 17 17 17 18 17 17 18 19 20 20 19 19 20 20 19 17 17 16 15 14 14 15 14 14 12 11 11 10 9 9 9 8 8 7 6 6 5 4 3 3 3 4 3 3 3 3 3 3 4 5 5 5 5 5 5 5 5 6 7
14 14 12 11 16 16 12 13 16 23 22 18 18 18 16 11 9 15 17 18 18 17 16 15 15 13 11 10 9 10 10 10 11 14 16 15 14 16 17 17 18 19 17 18 19 19 19 19 19 19 19 20 18 17 17 16 15 14 13 13 14 13 12 11 11 11 9 9 9 8 8 8 7 6 5 5 4 4 4 4 4 3 3 3 3 4 4 4 5 5 5 6 4 4 5 5 6
16 16 14 13 12 15 14 12 16 23 21 20 19 17 20 17 12 14 17 18 18 17 16 13 13 12 10 9 9 9 10 10 11 14 16 15 15 17 18 18 19 20 20 20 21 20 19 19 19 19 19 20 18 17 17 16 16 15 14 14 14 13 12 11 10 10 9 9 9 9 8 8 7 7 6 5 5 5 5 5 5 4 3 3 3 4 4 4 4 5 5 5 4 3 6 7 6
15 16 15 15 12 13 16 13 16 21 17 18 22 19 20 21 17 14 15 17 17 18 17 13 12 12 10 10 10 10 10 9 11 14 16 17 16 17 18 18 19 20 21 21 22 22 20 20 19 19 20 20 19 17 17 17 16 16 14 14 14 14 12 11 10 9 9 9 9 9 8 7 7 7 7 6 6 6 6 6 5 4 4 4 4 4 4 4 4 4 4 3 3 3 7 9 8
13 14 13 14 12 12 16 15 15 18 15 14 20 21 20 22 19 15 15 17 17 17 17 15 14 13 10 11 11 10 9 8 10 12 15 17 17 17 18 18 19 21 21 21 22 22 21 20 20 20 20 21 19 17 18 18 17 16 15 14 13 12 11 11 10 9 9 8 7 8 7 7 8 8 7 7 7 7 7 6 5 5 4 4 4 4 4 4 4 4 3 1 3 5 8 11 11
11 11 12 12 12 11 13 16 15 15 12 11 18 19 17 20 20 17 16 15 15 15 16 15 15 14 12 12 11 10 10 10 10 11 14 16 16 18 17 17 20 21 20 21 22 22 22 21 21 20 20 20 18 17 19 18 17 16 14 14 14 11 10 11 10 9 8 7 6 6 6 7 8 8 8 8 8 7 7 6 5 5 4 4 4 4 4 5 4 4 4 2 2 5 8 11 13
9 10 11 10 13 13 10 14 16 14 11 10 14 15 13 16 18 17 17 15 14 14 15 14 13 13 12 12 10 10 12 12 12 12 13 15 16 18 18 18 21 21 20 22 22 22 21 21 21 21 20 19 17 18 18 17 17 15 12 12 13 11 10 10 9 8 8 7 5 4 6 8 8 9 10 9 8 7 6 6 5 4 4 4 4 4 4 5 5 5 5 4 2 4 7 10 13
10 11 11 11 15 16 10 12 15 13 12 12 11 10 10 14 17 17 15 15 15 14 15 14 13 12 11 11 10 10 12 12 13 13 13 14 16 17 19 19 20 20 20 21 22 21 21 21 21 21 21 21 19 20 19 17 16 15 12 11 12 10 10 10 9 8 7 6 6 5 7 8 9 12 11 9 8 7 6 6 6 5 4 4 4 4 5 5 6 6 6 6 5 5 6 8 10
10 12 13 12 15 17 13 14 15 11 11 13 12 9 9 13 17 16 14 15 15 14 15 15 14 13 11 10 11 11 12 12 13 13 13 13 14 15 17 19 19 18 19 20 21 21 20 20 21 21 23 22 19 20 21 21 20 19 17 15 13 12 12 11 10 10 9 6 7 9 11 11 12 13 11 8 8 7 5 6 6 5 4 5 5 5 6 7 8 8 7 7 7 6 5 6 8
9 12 13 12 14 18 15 15 15 10 9 14 15 11 7 11 16 17 16 17 18 16 15 16 14 13 12 11 12 13 12 12 13 12 13 13 14 15 17 18 19 18 18 18 18 19 17 18 21 24 26 25 21 20 23 25 25 22 20 17 16 15 14 11 9 9 8 7 10 13 14 15 14 12 9 8 7 5 5 6 6 6 5 6 7 7 8 8 8 9 8 8 8 7 6 7 7
7 13 16 12 11 16 16 14 13 9 7 12 17 14 8 8 13 18 19 19 20 20 16 15 14 13 14 14 13 13 13 13 13 12 13 13 14 17 18 18 18 18 17 16 17 18 17 19 24 27 28 28 26 25 26 27 24 21 20 18 16 15 13 11 10 9 9 11 16 16 16 16 12 9 8 7 6 5 6 7 7 7 8 8 9 9 9 9 9 9 9 9 10 9 9 9 8
6 12 18 15 12 14 14 12 10 9 9 10 16 16 10 8 10 17 21 20 22 23 19 16 15 15 16 15 15 14 13 13 13 13 13 13 15 18 18 17 17 16 15 14 14 17 22 23 26 28 28 27 26 27 27 24 22 22 22 20 16 14 12 11 11 12 14 17 18 18 17 14 11 8 7 6 6 7 7 8 8 9 10 10 10 11 10 11 10 10 10 11 12 11 11 11 11
8 12 16 15 12 12 11 11 10 10 10 10 16 18 12 8 8 13 17 19 20 19 17 16 17 17 16 15 15 14 13 12 13 13 13 14 17 18 16 16 16 15 14 12 16 24 24 25 28 27 24 23 22 26 26 22 20 22 22 20 17 15 13 12 13 16 21 24 21 19 16 13 11 8 6 6 7 8 9 9 10 10 12 12 11 12 11 11 11 12 13 13 14 14 14 15 13
11 12 13 12 10 10 8 9 9 9 10 12 17 21 16 9 8 12 13 14 17 17 16 17 18 18 16 15 15 15 13 11 12 13 12 15 17 17 16 16 16 15 13 15 28 30 25 26 28 25 23 23 21 23 24 21 20 21 21 20 19 16 15 17 18 20 23 24 21 19 16 13 11 9 7 8 8 9 10 10 11 12 13 12 12 11 11 10 11 12 14 16 16 15 16 16 15
13 11 12 10 9 8 7 7 9 9 10 13 17 21 19 13 8 10 12 15 18 19 18 19 19 18 17 15 15 15 14 12 12 13 12 14 15 16 18 17 16 15 15 25 35 30 23 24 25 23 22 22 21 21 21 20 19 19 20 20 18 15 17 21 22 24 25 22 20 19 17 14 12 10 9 10 10 10 11 12 12 13 13 12 12 11 10 10 11 12 14 15 15 15 15 14 14
13 11 12 11 9 8 9 9 9 9 8 10 17 19 16 13 9 8 13 18 21 19 18 20 20 19 17 16 15 13 13 13 13 12 12 13 13 14 18 17 17 17 19 29 33 23 21 24 25 25 22 20 22 23 21 20 18 18 19 19 16 14 18 23 24 25 25 22 20 19 17 14 12 11 10 10 10 10 11 11 11 12 13 13 12 11 11 12 13 14 15 15 15 16 16 15 15
15 13 12 11 10 9 11 11 9 10 6 6 14 15 11 11 11 9 11 16 20 20 19 19 19 18 16 15 14 14 14 14 12 12 13 13 13 15 17 16 17 18 20 28 30 22 24 26 26 28 27 24 24 25 24 21 18 18 18 18 17 17 21 24 25 25 23 21 20 18 16 14 12 12 12 11 10 10 11 11 12 13 13 13 12 12 12 14 14 15 15 16 16 16 17 17 16
15 12 11 10 8 8 9 9 9 11 7 7 12 12 9 8 7 10 11 12 16 18 18 18 16 16 15 13 14 14 14 14 12 13 14 14 15 16 16 16 17 19 21 27 28 24 26 27 26 29 30 26 22 23 23 21 19 18 19 19 18 20 23 23 24 26 24 22 20 18 15 13 12 13 14 13 12 12 13 13 13 14 13 12 12 13 14 15 15 15 16 16 16 16 16 17 16
12 10 10 9 7 6 5 3 5 9 8 8 10 7 6 4 3 6 11 11 13 15 16 17 14 13 14 13 14 14 14 14 13 13 14 14 16 17 17 17 18 21 23 25 25 23 26 28 28 29 28 24 20 20 19 18 18 18 18 18 18 21 25 24 25 26 25 22 19 16 14 12 13 16 16 14 14 14 14 14 14 14 13 12 12 13 14 14 15 16 16 16 16 16 16 16 16
11 10 11 9 5 4 4 2 3 7 8 7 9 7 5 4 3 7 12 12 13 13 14 16 13 14 15 13 13 14 13 14 14 14 14 14 16 17 18 19 20 23 24 22 23 23 25 27 28 27 24 20 18 17 17 17 17 17 17 19 22 23 22 24 28 28 25 23 18 15 14 13 15 17 17 16 15 15 14 14 14 13 12 12 12 13 14 15 16 16 15 15 15 14 15 14 14
10 10 11 10 4 3 5 6 5 8 8 6 10 12 9 6 5 9 14 15 15 14 14 15 14 15 15 13 13 14 14 14 14 14 14 14 15 17 19 20 21 24 24 22 23 22 23 25 26 25 23 22 21 19 18 18 18 18 17 20 24 22 19 25 31 29 25 22 18 15 15 15 17 18 18 17 16 15 15 14 14 13 12 12 13 14 15 15 16 16 15 15 14 14 14 13 13
11 9 9 9 7 5 6 6 7 9 8 6 10 13 10 8 6 10 15 16 15 15 15 15 15 15 14 13 14 15 14 14 13 13 13 13 15 18 21 21 22 25 24 23 23 21 22 23 24 24 22 22 23 22 21 19 19 18 17 19 21 19 21 29 32 28 24 21 18 18 17 17 18 18 17 16 15 15 14 14 14 13 12 13 13 14 15 16 16 15 15 14 13 13 13 13 12
10 8 9 8 7 6 6 5 6 8 8 5 8 11 9 7 7 12 16 17 16 16 14 14 15 15 14 12 13 13 14 13 13 14 14 14 16 20 22 23 24 25 25 25 24 22 23 24 25 25 23 22 22 22 22 20 18 18 18 19 18 18 25 32 30 26 23 20 20 20 19 19 19 16 16 16 15 15 14 14 13 13 12 13 14 15 15 16 15 14 14 13 13 13 13 12 11
9 8 10 10 6 5 6 5 4 6 7 6 6 7 7 7 6 8 13 16 16 16 14 13 14 14 13 12 13 13 13 14 14 14 14 15 17 20 22 23 24 25 25 26 25 24 25 26 26 25 24 25 23 21 22 21 18 19 20 20 18 21 30 32 29 25 22 22 22 21 20 20 18 16 16 16 15 15 14 14 13 12 13 13 15 15 15 15 15 14 14 13 13 12 12 12 11
11 8 9 11 8 5 6 6 5 5 5 5 6 5 6 7 7 7 9 12 14 16 16 13 13 14 13 12 13 13 13 13 14 14 14 15 16 20 23 24 25 26 25 27 28 27 25 26 27 24 22 23 22 22 24 21 18 20 21 20 19 26 33 33 29 25 24 24 24 22 21 19 18 17 16 16 16 15 14 14 13 12 13 14 16 16 15 15 15 15 14 13 12 12 12 12 11
Wind_Direction
342 344 339 335 332 290 270 299 279 212 266 250 246 242 121 90 91 62 42 54 65 36 16 356 351 349 320 337 357 297 330 340 347 345 31 65 106 141 153 153 151 150 149 150 154 167 171 177 176 169 165 159 156 157 155 153 155 154 153 150 149 148 148 146 144 144 141 137 134 133 132 131 130 127 124 121 118 111 105 104 104 100 97 97 96 97 101 111 121 124 119 113 108 103 100 91 84
340 338 338 327 299 268 291 322 275 237 239 241 223 230 111 122 152 87 43 33 28 15 358 10 10 5 334 291 264 255 180 48 19 32 66 95 123 135 151 152 152 149 148 149 152 162 166 174 176 170 165 158 156 158 156 154 156 154 154 153 153 152 150 147 145 145 142 140 136 134 133 132 131 127 126 122 114 109 109 110 106 99 93 94 96 100 103 107 117 125 124 116 110 106 103 93 87
339 339 335 305 269 266 289 241 260 248 232 238 217 165 123 178 127 78 45 26 17 2 356 13 88 25 327 236 251 323 74 73 57 57 94 128 142 147 155 150 152 148 146 147 151 161 165 173 175 171 165 159 157 158 158 155 155 154 156 157 155 154 151 149 148 147 145 141 137 136 135 135 133 130 128 120 113 111 111 109 105 101 100 99 97 99 104 107 112 117 120 117 112 109 103 92 87
337 332 323 297 265 246 260 239 251 256 235 235 226 144 158 197 91 71 58 20 354 5 8 353 347 60 337 342 14 342 62 75 67 26 108 133 137 145 153 150 149 147 147 148 153 160 166 175 176 170 164 159 157 159 160 156 156 157 159 159 157 156 154 152 150 149 147 143 141 139 138 137 134 132 128 121 117 114 113 115 115 111 113 111 105 106 109 109 110 111 115 118 115 108 98 87 82
321 305 297 288 276 271 263 257 254 249 245 238 233 150 157 167 74 59 61 20 350 13 14 349 350 26 333 26 360 324 60 83 85 33 96 109 124 140 149 149 147 148 149 150 155 160 168 179 176 168 162 158 157 160 160 157 158 160 161 159 158 158 155 154 152 150 147 146 145 142 139 137 136 135 130 126 122 119 121 126 124 111 114 117 112 112 113 114 115 115 118 121 115 104 93 84 77
290 263 249 259 278 315 261 249 245 239 246 248 244 164 145 296 49 42 23 22 32 18 10 356 349 327 279 92 19 23 37 7 100 55 91 120 136 142 147 148 149 150 150 152 156 160 168 180 175 166 162 157 157 160 160 159 162 162 162 161 161 159 155 154 153 152 149 147 146 143 139 136 137 137 133 130 129 128 128 127 119 106 106 115 115 113 115 117 118 119 120 119 111 101 91 79 70
275 244 214 229 225 230 249 247 246 246 237 236 247 229 137 326 54 23 326 2 46 55 16 353 347 310 290 83 43 77 55 14 55 55 105 131 139 143 148 148 150 150 152 153 156 159 168 177 171 165 161 158 158 160 161 162 163 163 163 162 162 158 156 156 155 153 150 147 145 143 139 136 135 133 130 129 134 137 134 130 124 119 115 115 117 116 119 119 118 119 118 115 109 99 88 76 68
246 249 227 240 237 208 240 247 244 251 237 220 244 262 301 318 38 289 311 339 322 360 332 339 339 301 335 7 299 101 74 51 66 94 121 138 142 146 150 151 152 152 154 152 154 159 170 176 170 166 161 159 160 160 163 164 165 164 164 162 161 158 158 158 156 156 153 150 146 142 138 136 134 133 133 129 135 138 137 138 128 126 122 117 121 124 124 123 120 119 116 114 109 100 91 80 73
217 228 231 245 250 232 236 245 241 244 238 223 241 250 247 247 262 276 284 296 309 314 306 345 323 298 343 321 304 113 87 63 97 122 133 145 145 148 151 154 155 153 155 153 154 156 168 176 171 167 161 159 161 163 166 166 167 166 164 163 162 160 159 160 160 159 155 151 145 140 139 140 139 139 137 133 133 132 132 133 124 120 118 115 122 126 127 126 123 121 119 117 112 105 97 85 78
208 215 232 238 245 245 239 240 239 239 235 234 244 242 230 232 246 259 270 290 304 286 297 341 287 285 311 302 306 109 84 85 118 128 140 149 148 149 150 156 156 155 155 154 155 156 166 174 172 168 162 160 163 167 169 168 168 166 165 165 164 162 162 163 162 160 155 149 146 143 145 148 147 143 141 140 139 138 135 130 125 118 113 111 115 123 129 130 129 127 125 123 118 111 102 90 81
214 207 235 242 238 243 243 243 239 237 230 234 241 234 233 233 242 249 257 272 265 267 257 227 263 283 293 287 312 100 98 117 136 137 148 151 150 150 150 156 157 157 156 154 155 158 165 171 171 168 163 161 165 170 170 170 169 167 167 167 166 164 165 165 162 160 155 150 149 148 151 154 151 148 148 149 147 147 143 135 131 123 115 112 113 123 132 134 135 134 131 128 120 113 108 98 85
227 206 212 235 238 241 244 248 245 242 226 225 232 227 227 224 237 246 248 258 246 261 243 202 289 321 285 285 92 112 125 149 148 145 154 153 153 154 154 157 157 158 156 155 156 160 163 167 169 169 166 164 167 171 170 172 170 168 168 167 166 166 167 166 162 160 156 152 154 156 157 158 158 160 163 164 158 151 148 141 135 127 120 115 116 125 134 138 140 139 135 130 122 115 111 101 86
228 220 217 231 239 244 245 247 245 245 236 220 222 226 223 217 236 249 257 263 247 263 247 178 283 291 277 294 115 134 149 162 154 150 159 159 157 156 156 156 156 156 156 156 158 162 163 165 167 170 170 166 169 172 172 173 171 169 169 169 168 168 169 166 163 161 158 158 159 163 164 164 168 167 171 176 165 154 151 146 140 133 125 120 120 126 134 140 141 140 137 134 127 121 114 107 92
220 231 235 238 239 242 244 245 241 241 243 225 211 215 212 221 245 254 263 266 257 265 78 115 269 262 266 266 181 166 163 161 156 155 163 165 159 159 158 154 155 156 158 161 161 162 164 166 168 170 170 167 170 173 174 175 172 171 171 172 170 170 170 166 165 163 159 160 158 162 168 169 171 166 166 173 164 161 159 152 146 138 132 127 124 127 134 138 139 139 138 139 138 135 132 124 132
216 233 236 245 243 240 240 239 242 241 243 234 210 196 208 229 242 249 255 264 275 80 91 180 223 260 277 266 298 117 149 155 156 159 164 165 162 165 160 153 156 158 161 165 165 164 165 168 169 169 169 169 172 172 176 177 173 173 175 174 171 171 170 167 165 161 156 155 153 156 161 161 164 164 161 165 162 162 158 154 151 144 139 134 129 131 131 135 136 137 138 141 148 148 149 148 160
216 232 228 243 241 239 237 232 240 240 240 238 210 189 216 229 227 244 249 260 276 116 191 219 187 262 299 305 348 102 140 149 155 160 162 165 166 167 164 158 158 161 166 168 168 167 168 169 169 169 170 172 173 171 174 178 175 175 177 175 171 170 167 166 163 157 154 151 152 147 132 124 128 131 134 154 162 157 152 156 158 151 144 139 135 134 130 132 133 134 139 145 154 162 174 217 298
207 223 227 237 237 237 236 230 235 238 236 228 205 202 224 231 220 232 198 242 258 201 201 215 182 254 292 327 45 124 138 145 156 160 164 168 169 169 169 167 164 165 170 171 170 170 170 171 170 170 172 173 172 171 172 177 177 178 177 174 172 169 165 163 159 152 148 146 146 132 115 116 120 115 115 128 140 150 159 164 164 156 148 144 139 135 130 129 131 136 144 150 162 175 192 295 316
195 213 227 233 234 234 235 237 238 237 234 222 209 213 226 237 227 210 194 227 242 224 200 199 204 219 287 4 130 140 140 149 162 165 170 173 174 174 172 172 170 169 170 171 172 172 171 172 173 172 173 174 171 171 173 175 176 177 174 170 168 164 162 157 152 147 142 143 140 128 124 133 126 121 124 128 128 144 166 166 164 159 153 148 142 137 132 132 142 147 154 159 166 170 151 243 289
203 214 225 232 236 236 235 240 239 229 230 232 232 226 224 237 236 214 217 230 222 224 217 193 204 201 170 146 152 149 147 158 169 172 177 178 179 176 173 173 172 170 169 170 172 173 173 173 175 174 174 174 171 172 174 173 174 175 169 165 163 159 162 158 154 154 150 147 141 134 137 135 123 120 124 130 134 139 156 164 164 162 155 151 145 139 138 145 152 152 163 163 147 114 173 220 245
213 219 228 233 234 238 237 236 232 222 226 238 245 238 227 232 235 221 226 243 232 230 234 204 213 209 173 159 160 159 159 169 176 179 184 185 183 176 174 173 172 172 169 168 168 172 175 175 176 175 174 174 173 173 175 174 173 174 168 163 162 161 164 162 160 158 155 150 142 141 140 137 130 123 118 116 122 128 139 153 160 161 157 154 147 141 149 149 143 161 215 205 283 286 258 256 274
212 220 233 236 232 237 233 228 221 217 227 236 247 245 233 228 229 224 227 245 239 235 244 232 241 225 171 163 168 171 172 179 183 185 189 190 185 179 178 173 172 171 166 165 165 172 176 175 176 174 174 175 175 177 177 175 172 172 169 164 163 162 159 162 164 158 154 151 143 144 145 144 141 136 133 126 129 136 137 144 154 159 159 159 152 149 166 164 172 236 267 271 265 274 278 291 298
219 224 234 240 238 236 221 214 213 214 224 231 242 243 237 229 222 222 227 240 244 248 245 231 253 235 166 167 176 178 181 186 189 190 191 192 189 184 182 178 177 171 165 164 164 172 176 176 176 174 175 176 178 181 178 177 172 170 169 167 165 160 157 164 166 157 155 153 147 149 148 148 147 145 146 145 146 145 144 147 151 155 157 159 160 160 164 171 217 243 269 274 272 278 287 295 295
225 226 228 235 236 230 209 205 211 208 214 222 235 241 237 227 220 220 226 235 246 273 25 215 252 204 166 171 177 180 184 189 193 194 193 193 192 188 185 185 183 177 168 163 164 170 175 178 177 175 176 177 180 182 179 177 173 171 170 168 166 159 159 167 165 159 158 154 153 154 152 152 151 150 150 153 157 153 149 149 150 154 155 155 159 159 152 165 235 266 278 282 289 291 298 309 307
223 230 221 223 221 219 210 205 208 203 212 222 232 237 226 223 226 220 220 232 237 199 100 207 234 171 170 174 178 182 184 189 195 195 195 195 194 190 189 189 187 181 169 162 167 171 175 177 177 177 177 178 182 182 180 179 174 172 170 170 168 159 160 168 165 159 156 156 160 160 162 161 156 155 156 160 165 162 155 152 155 155 153 151 151 153 151 163 237 289 297 299 305 309 317 323 323
219 229 223 215 213 215 213 208 205 200 211 222 223 226 222 228 238 221 216 228 223 182 164 193 182 173 178 183 181 181 183 188 194 193 195 196 192 190 192 191 188 184 168 161 169 172 175 177 177 180 178 179 182 181 181 180 174 172 170 173 168 157 163 169 162 159 156 159 164 167 172 167 162 160 156 160 164 162 159 159 159 153 147 147 147 152 151 146 107 339 324 318 320 323 331 337 334
213 220 220 210 209 209 207 205 203 200 204 209 213 223 228 228 230 222 221 219 193 176 189 183 179 183 187 189 180 179 184 189 194 192 194 194 189 189 193 192 188 184 169 161 168 173 175 178 179 181 180 181 182 181 183 179 175 174 172 174 167 159 166 167 162 163 161 163 166 170 177 170 164 160 153 158 164 168 169 165 160 152 145 144 151 155 137 109 59 16 348 337 340 339 344 346 338
208 214 215 209 209 205 206 207 202 203 206 207 215 225 226 211 208 226 220 200 179 187 197 186 184 192 192 188 178 181 188 192 194 191 192 193 190 192 193 191 187 182 170 161 167 173 175 178 181 182 182 183 182 182 182 178 175 174 173 174 171 164 164 165 167 168 164 164 164 166 172 171 168 162 158 165 175 183 184 179 168 156 148 147 155 147 116 89 61 36 14 359 355 349 346 344 338
203 206 210 209 210 207 210 214 207 205 208 206 218 231 227 216 217 226 208 187 191 201 201 191 192 197 193 186 181 185 192 195 195 192 193 193 193 194 191 191 186 177 169 165 167 169 173 178 182 183 183 184 184 181 179 178 176 172 173 173 173 166 161 166 170 169 166 162 159 163 169 173 176 171 169 174 186 196 196 190 174 161 153 148 148 125 101 82 68 56 37 16 1 350 345 345 343
199 194 206 207 209 213 208 211 210 208 210 198 209 233 231 223 218 217 210 197 195 203 206 196 195 197 191 188 187 189 193 195 196 196 196 195 196 194 191 190 182 173 167 167 167 167 173 178 181 183 184 186 186 180 177 177 174 172 174 173 172 165 161 168 173 170 167 161 156 161 168 173 182 183 179 179 189 200 197 189 169 156 150 141 136 106 88 75 66 57 42 25 7 355 350 351 347
201 195 212 206 207 217 204 202 207 209 213 193 195 230 229 221 216 212 211 203 197 206 211 203 196 197 193 190 191 192 193 196 197 198 196 195 196 193 191 187 177 170 164 167 171 170 173 178 180 182 184 186 185 179 176 175 171 172 173 171 169 164 163 171 174 171 166 159 156 160 166 173 185 190 188 185 187 190 182 169 158 151 145 138 128 89 75 65 51 39 32 26 18 6 357 352 347
199 196 214 211 208 213 200 198 199 202 208 194 199 233 234 222 213 206 204 202 203 209 212 209 200 195 195 191 192 193 194 199 198 198 197 194 195 193 190 184 174 172 169 174 180 175 175 178 179 181 183 184 182 177 174 174 172 171 170 169 167 164 166 173 173 172 167 162 161 163 167 173 186 192 196 195 186 176 162 152 152 150 143 131 105 75 66 58 43 33 25 20 22 12 360 352 346
194 196 208 211 216 209 193 194 197 197 194 189 203 231 236 234 217 193 191 196 201 212 213 209 202 194 195 193 192 191 191 197 198 198 197 195 194 193 190 183 175 181 183 182 184 180 178 179 179 180 182 180 177 174 173 175 175 173 170 168 167 165 169 175 175 174 170 165 164 167 168 174 185 190 195 196 181 167 158 151 153 151 138 111 85 70 60 53 40 35 26 14 18 15 2 353 345
198 206 209 203 207 205 184 189 197 199 190 191 208 226 230 235 217 179 182 189 193 209 213 206 202 195 195 194 189 188 187 189 195 197 195 195 195 193 191 185 180 188 190 184 184 184 182 180 180 180 180 178 174 171 175 177 177 175 172 168 167 168 172 176 174 174 171 167 167 168 171 176 183 185 187 185 175 171 164 152 152 149 130 107 94 77 59 45 34 31 21 7 12 16 6 355 345
194 205 211 203 201 203 185 183 192 199 200 199 207 223 233 227 200 178 183 188 190 204 208 203 202 196 194 194 184 184 186 187 193 194 192 192 193 192 191 187 187 191 190 185 184 185 184 181 180 178 177 177 172 173 178 178 176 173 168 165 165 170 174 174 171 172 171 168 168 169 173 180 180 178 176 173 174 173 163 152 149 143 123 112 103 84 58 40 31 26 11 355 359 17 17 360 345
194 193 204 203 199 204 194 176 182 193 203 207 203 214 226 217 188 185 187 189 194 204 205 202 204 200 191 189 186 183 185 188 190 187 184 186 187 186 188 187 189 191 189 188 185 184 184 181 178 176 175 174 170 173 176 173 171 166 160 160 163 169 174 175 174 175 175 172 172 173 179 184 176 169 170 171 173 169 157 146 139 131 113 100 87 71 53 34 25 19 5 349 347 24 29 8 347
203 190 197 202 193 200 198 175 175 187 198 208 207 209 217 214 200 193 190 190 196 203 204 202 204 202 191 187 189 185 187 188 184 179 178 182 186 186 187 188 189 190 192 190 187 185 183 179 176 174 176 175 171 172 172 169 167 162 158 161 166 171 174 179 182 182 181 179 177 178 185 188 172 162 167 167 164 159 147 137 131 117 97 75 59 54 45 29 17 6 356 350 348 33 34 17 360
214 192 194 198 190 193 196 185 176 186 198 206 208 211 214 216 211 198 192 192 197 202 202 198 198 200 198 195 192 186 188 185 174 175 180 182 186 187 187 189 189 190 192 191 189 188 184 178 175 172 174 176 173 172 173 172 169 166 166 170 172 173 174 181 188 189 188 185 182 183 188 184 165 156 158 158 158 154 141 133 127 106 86 68 57 53 43 29 17 359 341 352 6 38 36 23 15
211 191 189 191 196 192 191 193 178 186 205 205 206 214 216 217 214 202 193 194 199 203 201 196 195 198 201 205 200 188 185 179 168 177 184 181 183 188 188 189 190 190 191 191 189 189 185 179 174 170 171 174 173 173 177 178 176 174 173 173 171 169 174 183 188 186 187 188 186 186 184 168 154 149 150 152 152 149 139 130 118 95 77 62 52 47 37 28 20 5 348 360 41 56 48 30 27
201 190 193 192 198 190 187 196 185 185 207 205 201 212 219 216 215 206 195 197 201 204 205 201 198 196 198 206 203 189 183 179 175 183 186 182 184 185 186 190 192 191 191 191 191 189 186 180 174 170 168 170 171 174 178 178 178 177 174 173 172 170 177 184 185 177 177 191 194 186 171 150 143 144 147 147 143 138 131 121 106 87 71 50 41 40 34 28 26 23 19 17 64 72 60 40 35
205 195 198 196 191 188 187 192 187 186 204 214 202 208 221 215 214 211 197 195 199 203 209 210 206 201 199 203 199 191 188 186 187 189 184 183 186 186 189 193 192 192 193 193 193 188 184 180 174 167 162 163 169 173 173 173 176 177 175 176 175 176 179 177 173 166 170 184 181 175 163 146 142 148 145 135 133 134 122 109 99 90 71 50 47 46 42 40 41 43 40 36 46 75 68 51 42
215 211 205 199 188 192 194 180 181 186 202 219 206 201 221 213 209 208 195 194 198 198 204 209 209 206 205 203 199 196 195 195 194 192 188 186 188 191 194 193 193 194 195 195 194 189 184 179 170 162 159 162 170 171 166 165 170 174 177 173 166 168 174 171 160 153 163 168 162 168 159 145 149 153 143 126 129 136 122 104 95 86 71 61 64 61 61 60 57 54 53 52 50 63 83 72 54
210 215 216 208 189 193 197 174 175 188 198 205 203 204 214 207 205 200 190 195 199 198 201 205 205 204 207 204 200 201 201 202 199 194 194 189 187 191 192 193 195 196 198 198 195 191 186 175 164 158 158 160 163 165 167 168 170 176 179 172 164 165 169 171 165 161 164 157 156 164 153 149 156 151 140 131 133 131 113 100 92 84 76 76 80 80 79 73 66 61 57 59 57 57 83 93 76
205 200 211 217 191 191 197 178 179 198 197 192 202 218 214 197 202 200 194 197 198 199 202 203 203 200 203 205 203 203 200 202 201 196 197 192 187 190 193 195 198 201 202 197 193 193 184 168 159 155 156 160 165 171 176 177 176 178 181 180 177 175 173 168 161 154 150 154 163 162 151 150 153 146 136 131 128 120 108 99 95 94 92 89 89 89 86 78 72 68 64 64 65 61 72 86 84
204 179 192 207 194 191 194 187 190 204 197 187 199 217 231 208 198 194 194 197 198 201 202 201 201 199 202 206 205 203 200 200 198 196 199 194 188 193 198 200 203 208 200 191 196 191 166 150 149 151 160 172 178 179 179 179 177 177 182 184 181 178 170 153 145 135 136 164 168 155 145 142 143 142 133 123 116 114 112 103 99 100 97 94 93 91 86 82 78 72 69 69 69 67 69 76 75
196 166 184 197 202 202 196 196 203 204 201 195 195 205 228 229 195 184 189 195 200 200 198 198 200 201 204 205 204 202 199 199 199 197 198 195 194 200 204 204 207 206 196 192 183 155 138 142 153 159 168 177 179 176 177 179 178 179 183 184 179 171 156 142 147 146 146 162 162 147 142 143 146 152 137 128 125 113 110 107 104 104 102 99 96 93 91 88 82 74 71 71 73 73 72 76 74
180 160 180 190 200 210 204 205 206 201 209 210 194 194 214 230 193 179 187 196 200 197 195 198 201 201 203 202 201 200 196 196 200 200 199 201 203 204 202 203 203 195 191 179 145 137 146 160 166 167 170 175 176 175 176 179 180 180 181 181 175 161 152 155 156 148 147 155 156 147 147 148 149 156 147 141 131 113 109 107 107 111 110 105 100 97 93 87 82 78 79 80 80 79 79 78 75
180 163 178 179 189 203 204 211 208 204 215 217 201 194 205 224 196 184 193 195 194 192 193 198 201 201 200 200 199 198 194 192 197 200 202 203 202 201 198 202 199 187 181 151 137 145 160 165 165 167 170 174 178 176 176 180 180 179 178 178 172 161 164 173 164 149 148 154 155 149 149 151 149 153 151 139 124 116 117 114 115 117 112 106 101 96 90 84 81 80 85 88 85 81 82 81 77
191 173 177 169 176 189 194 206 212 215 216 214 205 195 201 219 209 187 187 189 193 194 194 195 198 199 197 196 196 195 191 187 192 197 200 198 197 196 196 200 196 182 161 141 141 148 156 156 158 162 168 173 175 177 178 179 179 179 180 175 168 167 175 181 174 161 157 160 158 151 148 149 145 142 136 126 121 123 124 120 117 115 110 107 101 95 91 88 89 88 88 88 84 81 81 82 79
199 185 180 173 170 177 189 196 204 215 214 207 200 192 200 220 223 187 174 185 195 196 196 195 196 197 196 192 189 187 185 183 187 192 196 196 195 195 195 197 191 177 153 144 149 153 151 150 147 152 169 176 172 176 177 176 179 181 180 169 162 178 185 182 176 167 163 165 161 152 148 144 137 131 123 119 122 125 122 119 117 113 113 110 102 97 94 93 95 95 93 89 85 85 86 85 82
197 191 184 181 172 175 191 191 195 205 200 191 191 189 203 218 220 207 185 189 195 195 199 198 195 196 193 187 182 180 180 181 182 189 195 196 198 198 196 195 184 170 156 153 157 157 148 146 143 154 178 183 171 173 174 175 179 176 173 167 171 191 187 174 171 168 167 167 160 153 150 144 137 130 124 124 128 129 125 123 121 117 115 111 105 101 100 100 99 97 95 91 88 89 89 88 84
195 197 195 196 186 181 193 189 192 195 176 170 185 191 207 206 206 206 195 190 191 194 201 200 200 200 190 178 175 175 177 178 180 188 194 196 198 197 192 186 176 165 160 160 160 155 147 146 148 163 186 191 174 172 174 173 176 172 171 174 182 186 177 168 170 171 169 166 160 155 152 149 144 139 135 134 133 132 128 126 123 119 115 109 103 102 103 105 103 101 99 95 94 93 91 90 86
191 202 209 210 199 184 187 191 197 187 168 172 185 195 202 172 113 172 181 183 184 188 195 193 193 188 176 168 170 174 176 177 179 186 191 194 194 192 184 178 173 163 160 159 158 155 148 148 156 171 187 189 174 170 170 169 171 170 172 180 181 171 166 168 170 169 167 166 162 156 151 149 149 146 142 136 133 132 129 126 123 119 115 108 104 106 108 108 106 105 103 99 98 97 93 92 88
181 199 210 205 204 198 178 107 111 173 178 176 182 191 187 162 133 161 175 182 177 174 182 183 178 171 167 169 173 175 177 177 180 182 186 188 188 187 181 178 173 164 159 158 158 156 150 151 164 173 173 168 166 166 166 165 167 166 168 177 178 168 164 170 170 169 168 164 159 152 146 144 149 150 145 138 134 133 130 127 124 119 114 108 107 111 112 112 110 106 105 103 101 100 97 94 91
182 190 201 191 200 251 204 165 142 177 191 171 179 194 191 185 178 168 179 187 177 172 178 180 177 173 173 177 178 178 178 178 179 178 180 182 183 182 178 177 173 164 160 159 157 157 154 155 165 168 158 156 163 166 167 168 169 166 160 166 174 171 167 170 170 169 166 160 153 148 144 145 151 153 147 139 136 135 132 129 126 120 116 111 111 115 115 114 112 109 108 106 104 104 100 96 94
207 193 193 189 196 210 200 185 170 184 194 173 183 198 201 200 183 166 181 190 180 179 184 181 178 180 183 184 179 177 175 173 175 176 176 179 182 181 178 175 168 162 161 159 156 157 159 160 162 160 158 164 167 165 165 165 168 167 160 161 167 169 172 172 169 166 162 157 152 148 146 148 151 150 145 140 138 139 136 132 128 122 118 116 116 118 118 117 115 113 111 108 107 107 103 100 97
221 219 201 201 213 203 192 193 183 189 197 185 183 195 204 206 185 173 185 192 186 183 184 182 182 185 186 182 174 172 172 171 174 176 175 179 184 182 178 173 164 161 162 160 157 160 161 160 159 160 162 167 167 164 162 160 163 165 161 161 162 165 171 171 166 164 159 154 154 152 149 150 150 145 143 141 141 141 139 134 131 126 122 121 122 122 122 121 118 116 114 112 111 109 105 103 99
205 215 194 192 208 209 193 195 207 203 197 187 176 187 202 201 187 179 183 188 190 187 183 184 189 188 182 174 170 170 172 173 175 176 174 178 180 176 174 170 162 160 161 161 161 162 162 162 161 163 165 166 165 165 165 161 160 164 163 161 159 163 168 167 165 164 159 156 157 154 150 149 147 145 144 143 143 143 141 136 132 130 127 127 128 127 126 125 121 119 116 114 113 111 107 104 102
198 203 190 190 193 194 184 181 208 221 203 193 184 187 193 182 187 196 187 188 191 189 188 189 190 187 179 172 171 171 171 172 173 173 172 176 176 172 172 169 163 159 158 160 162 163 166 166 163 164 170 170 167 167 168 163 158 163 164 160 159 164 168 167 165 163 159 159 159 155 153 148 143 144 145 144 145 143 141 138 134 132 131 132 133 131 130 128 125 122 119 118 118 115 111 107 105